Location: München
(48.1351°N, 11.5820°E)
Time: 19:11:06
(UTC+02:00)

ISS - Pass Details

Date: 23 May 2021
Orbit: 417 x 422 km, 51.6° (Epoch: 16 June)

Event Time Altitude Azimuth Distance (km) Brightness Sun altitude
Rises 00:33:56 0° 292° (WNW) 2,369 0.5 -20.8°
Reaches altitude 10° 00:36:03 10° 290° (WNW) 1,504 -0.6 -20.9°
Enters shadow 00:38:20 39° 275° (W) 648 -2.8 -20.9°
